This is the latest recevied weather packets stored in our database for station/object AC1IX. If no packets are shown the sender has not sent any weather packets the latest 10 day(s).
| Time | Temp. | Humidity | Pressure | Rain* | Wind** | Luminosity | Snow |
|---|---|---|---|---|---|---|---|
| 1778065448 | 13.89° C | 91% | 1008.8 hPa | 0 mm | - | 20 W/m² | - |
| 1778065145 | 12.78° C | 99% | 1008.8 hPa | 0 mm | - | 16 W/m² | - |
| 1778064841 | 12.78° C | 99% | 1008.5 hPa | 0 mm | - | 17 W/m² | - |
| 1778064539 | 12.22° C | 99% | 1008.4 hPa | 0 mm | - | 25 W/m² | - |
| 1778064236 | 12.22° C | 99% | 1008.4 hPa | 0 mm | - | 35 W/m² | - |
| 1778063934 | 11.67° C | 99% | 1008.5 hPa | 0 mm | - | 29 W/m² | - |
| 1778063631 | 11.67° C | 99% | 1008.5 hPa | 0 mm | - | 13 W/m² | - |
| 1778063328 | 11.11° C | 99% | 1008.3 hPa | 0 mm | - | 7 W/m² | - |
| 1778063026 | 10.56° C | 99% | 1008.4 hPa | 0 mm | - | 5 W/m² | - |
| 1778062723 | 10° C | 99% | 1008.5 hPa | 0 mm | - | 7 W/m² | - |
| 1778062419 | 10° C | 99% | 1008.4 hPa | 0 mm | - | 6 W/m² | - |
| 1778062117 | 9.44° C | 99% | 1008.6 hPa | 0 mm | - | 6 W/m² | - |
| 1778061815 | 9.44° C | 99% | 1008.4 hPa | 0 mm | - | 6 W/m² | - |
| 1778061513 | 9.44° C | 99% | 1008.5 hPa | 0 mm | - | 3 W/m² | - |
| 1778061210 | 9.44° C | 99% | 1008.2 hPa | 0 mm | - | 3 W/m² | - |
| 1778060907 | 9.44° C | 99% | 1008.6 hPa | 0 mm | - | 1 W/m² | - |
| 1778060606 | 9.44° C | 99% | 1008.3 hPa | 0 mm | - | 0 W/m² | - |
| 1778060304 | 9.44° C | 99% | 1008.4 hPa | 0 mm | - | 0 W/m² | - |
| 1778060000 | 9.44° C | 99% | 1008.5 hPa | 0 mm | - | 0 W/m² | - |
| 1778059698 | 9.44° C | 99% | 1008.5 hPa | 0 mm | - | 0 W/m² | - |
| 1778059396 | 9.44° C | 99% | 1008.8 hPa | 0 mm | - | 0 W/m² | - |
| 1778059092 | 9.44° C | 99% | 1008.5 hPa | 0 mm | - | 0 W/m² | - |
| 1778058790 | 9.44° C | 99% | 1008.8 hPa | 0 mm | - | 0 W/m² | - |
| 1778058488 | 9.44° C | 99% | 1008.8 hPa | 0 mm | - | 0 W/m² | - |
| 1778058184 | 9.44° C | 99% | 1008.9 hPa | 0 mm | - | 0 W/m² | - |
* Rain latest hour (hover to see other rain measurements)
** Current wind speed in m/s (hover to see current wind gust speed)